Location: *
(46.1333°S, 161.2167°W)
Time: 04:05:24
(UTC+00:00)

Atlas Centaur 2 - Pass Details

Date: 15 July 2020
Orbit: 459 x 1310 km, 30.4° (Epoch: 10 August)

Event Time Altitude Azimuth Distance (km) Brightness Sun altitude
Exits shadow 15:27:07 24° 339° (NNW) 2,416 4.3 -29.6°
Maximum altitude 15:29:01 26° 359° (N) 2,300 4.4 -29.2°
Drops below altitude 10° 15:35:24 10° 51° (NE) 3,158 5.8 -28.1°
Sets 15:38:37 0° 63° (ENE) 4,015 6.7 -27.6°
